Regional Weather Roundup
Issued by NWS Newport/Morehead, NC

Current Version | Previous Version | Graphics & Text | Print | Product List | Glossary Off
Versions: 1 2 3 4 5 6 7 8 9 10 11 12 13 14 15 16 17 18 19 20 21 22 23 24 25 26 27 28 29 30 31 32 33 34 35 36 37 38 39 40 41 42 43 44 45 46 47 48 49 50

000
ASUS42 KMHX 311313
RWRMHX
WEATHER ROUNDUP FOR EASTERN NORTH CAROLINA
NATIONAL WEATHER SERVICE NEWPORT/MOREHEAD CITY NC
900 AM EDT WED AUG 31 2016

NOTE: "FAIR" INDICATES FEW OR NO CLOUDS BELOW 12,000 FEET
WITH NO SIGNIFICANT WEATHER AND/OR OBSTRUCTIONS TO VISIBILITY

NCZ015>017-031-032-045>047-102-103-311400-
NORTH COAST

CITY           SKY/WX    TMP DP  RH WIND       PRES   REMARKS
EDENTON        FOG       77  77 100 N6        30.01S VSB 1
ELIZABETH CITY SUNNY     79  75  87 N5        30.00S
KITTY HAWK     PTSUNNY   83  79  87 N6        29.97R
MANTEO         PTSUNNY   81  77  89 NE8       29.98S

$$

NCZ045>047-081-094-103-104-311400-
CENTRAL COAST

CITY           SKY/WX    TMP DP  RH WIND       PRES   REMARKS
FRISCO         MOSUNNY   83  75  77 N7        29.97S

$$

NCZ095-097-098-100-101-311400-
SOUTHERN COAST

CITY           SKY/WX    TMP DP  RH WIND       PRES   REMARKS
BEAUFORT       CLOUDY    77  76  96 NE7       29.99S
CEDAR ISLAND   NOT AVBL
JACKSONVILLE   CLOUDY    75  74  96 NE5       30.00R FOG
PINEY ISLAND   PTSUNNY  N/A N/A N/A N7        29.99R
WILMINGTON     CLOUDY    76  75  97 CALM      30.00S


$$

NCZ011>013-027>030-043-044-078>080-089-090>093-098-311400-
COASTAL PLAIN

CITY           SKY/WX    TMP DP  RH WIND       PRES   REMARKS
AHOSKIE        DRZL/FOG  73  72  99 CALM      30.02S VSB 1/4
CLINTON        CLOUDY    76  75  98 CALM      30.02R
ELIZABETHTOWN  CLOUDY    77  76  97 E3        30.01S
GOLDSBORO      CLOUDY    77  77 100 NE2       29.99S FOG
GREENVILLE     RAIN      73  73 100 CALM      30.02S VSB 3/4
HAVELOCK       CLOUDY    78  74  87 N5        30.01R
KENANSVILLE    FOG       75  75 100 N3        30.01S VSB 1
KINSTON        CLOUDY    75  75 100 CALM      30.01S FOG
NEW BERN       CLOUDY    75  74  96 NE3       30.01R
RICHLANDS      CLOUDY    75  75 100 NE6       30.01R FOG
ROCKY MOUNT    FOG       74  74 100 N5        30.02S VSB 1/2
WASHINGTON     CLOUDY    74  74  99 N3        30.00F FOG
WHITEVILLE     CLOUDY    77  75  93 CALM      30.00S

$$

AMZ130-135-150-152-154-156-158-170-250-252-270-ANZ085-086-088-633-658-670-311400-
MARINE OBSERVATIONS

STATION/POSITION TIME  TEMP    WIND        PRES    WAVE   SWELL
                       AIR SEA DIR/SP/G            HT/PER HT/PER
                 (UTC) (F)     (DEG/KT/KT) (MB)    (FT/S) (FT/S)
CHESAPEAKE LIGHT NOT AVBL
64 E VA BEACH    1250   80 80   40/ 12/ 14 1014.6    4/11   3/11
DUCK             1200   79 80   20/  9/ 11 1014.7
2 E DUCK         1211      79                N/A     3/12   2/12
OREGON INLET     1200   80 81  360/  5/ 10 1014.8
13E OREGON INLT  1300      79                N/A     4/11   5/11
HATTERAS CG      1200   80 82  340/ 10/ 13 1014.6
DIAMOND BUOY     1250   81 85  350/ 12/ 14 1014.3    4/11   3/11
CAPE LOOKOUT     1300   79     340/  8/  9 1015.4
BEAUFORT LAB     1200   76 80  360/  6/  8 1014.9
30 SE NEW RVR IN 1208   81 84  360/  8/ 10 1015.4
30 SE NEW RVR IN 1225      84                N/A     3/11   2/11
27 SE WRIGHTSVLE 1208   81 84   30/  4/  8 1015.7
5 SE WRIGHTSVLE  1208   79 83   40/  8/ 10 1016.6
225 S CAPE HAT   1250   82 83  230/  4/  6 1016.2    4/11   3/11
41 SE CHARLESTON 1250   80 84  130/  6/  8 1014.8    4/10   3/10

$$




USA.gov is the U.S. government's official web portal to all federal, state and local government web resources and services.